TimeMDT,TemperatureF,Dew PointF,Humidity,Sea Level PressureIn,VisibilityMPH,Wind Direction,Wind SpeedMPH,Gust SpeedMPH,PrecipitationIn,Events,Conditions,WindDirDegrees,DateUTC
12:06 AM,62.6,60.8,94,30.18,10.0,NNE,16.1,-,0.00,,Mostly Cloudy,20,2013-07-25 06:06:00
12:53 AM,62.1,59.0,90,30.06,10.0,NNE,11.5,-,0.00,,Partly Cloudy,30,2013-07-25 06:53:00
1:53 AM,62.1,60.1,93,30.04,10.0,East,5.8,-,N/A,,Clear,80,2013-07-25 07:53:00
2:53 AM,60.1,59.0,96,30.02,10.0,SSE,4.6,-,N/A,,Partly Cloudy,150,2013-07-25 08:53:00
3:53 AM,60.1,59.0,96,29.98,7.0,South,6.9,-,N/A,,Clear,170,2013-07-25 09:53:00
4:53 AM,60.1,57.9,93,29.95,5.0,SSE,8.1,-,N/A,,Clear,150,2013-07-25 10:53:00
5:53 AM,59.0,57.9,96,29.96,3.0,ESE,3.5,-,N/A,,Clear,120,2013-07-25 11:53:00
6:01 AM,60.8,57.2,88,30.08,2.5,Calm,Calm,-,N/A,,Clear,0,2013-07-25 12:01:00
6:11 AM,60.8,59.0,94,30.10,4.0,South,6.9,-,N/A,,Partly Cloudy,170,2013-07-25 12:11:00
6:45 AM,62.6,60.8,94,30.09,5.0,South,9.2,-,N/A,,Scattered Clouds,170,2013-07-25 12:45:00
6:53 AM,62.1,61.0,96,29.97,2.5,South,11.5,-,N/A,,Mostly Cloudy,180,2013-07-25 12:53:00
7:02 AM,62.6,60.8,94,30.10,1.0,SSE,10.4,-,N/A,,Mostly Cloudy,160,2013-07-25 13:02:00
7:18 AM,62.6,62.6,100,30.09,3.0,SSE,10.4,-,N/A,,Mostly Cloudy,150,2013-07-25 13:18:00
7:44 AM,62.6,62.6,100,30.09,2.0,SSE,10.4,-,N/A,,Overcast,160,2013-07-25 13:44:00
8:29 AM,66.2,64.4,94,30.09,10.0,SSE,11.5,-,N/A,,Partly Cloudy,150,2013-07-25 14:29:00
8:53 AM,69.1,63.0,81,29.98,10.0,SSE,12.7,-,N/A,,Clear,150,2013-07-25 14:53:00
9:53 AM,70.0,63.0,78,29.99,10.0,SSE,13.8,-,N/A,,Scattered Clouds,150,2013-07-25 15:53:00
10:53 AM,75.0,61.0,62,29.97,10.0,South,15.0,-,N/A,,Clear,170,2013-07-25 16:53:00
11:53 AM,79.0,61.0,54,29.96,10.0,South,6.9,18.4,N/A,,Clear,170,2013-07-25 17:53:00
12:53 PM,82.9,61.0,47,29.95,10.0,East,9.2,17.3,N/A,,Scattered Clouds,90,2013-07-25 18:53:00
1:53 PM,82.9,60.1,46,29.94,10.0,NE,9.2,-,N/A,,Mostly Cloudy,40,2013-07-25 19:53:00
2:08 PM,84.2,60.8,45,30.06,10.0,NNE,8.1,-,N/A,Thunderstorm,Mostly Cloudy,30,2013-07-25 20:08:00
2:25 PM,80.6,60.8,51,30.06,10.0,North,20.7,24.2,N/A,,Mostly Cloudy,10,2013-07-25 20:25:00
2:32 PM,80.6,60.8,51,30.06,10.0,NNE,17.3,24.2,N/A,Thunderstorm,Mostly Cloudy,20,2013-07-25 20:32:00
2:53 PM,78.1,57.9,50,29.95,10.0,NNE,17.3,23.0,N/A,,Overcast,30,2013-07-25 20:53:00
3:53 PM,75.9,62.1,62,29.98,10.0,NNE,21.9,28.8,N/A,,Mostly Cloudy,20,2013-07-25 21:53:00
4:53 PM,73.9,61.0,64,29.97,10.0,NE,17.3,-,N/A,,Mostly Cloudy,40,2013-07-25 22:53:00
5:53 PM,77.0,55.9,48,29.98,10.0,NE,17.3,24.2,N/A,,Clear,40,2013-07-25 23:53:00
6:53 PM,75.0,60.1,60,30.00,10.0,NE,12.7,-,N/A,,Partly Cloudy,50,2013-07-26 00:53:00
7:53 PM,70.0,62.1,76,30.12,10.0,NE,6.9,-,N/A,,Clear,50,2013-07-26 01:53:00
8:53 PM,64.9,59.0,81,30.04,10.0,NNW,3.5,-,N/A,,Clear,330,2013-07-26 02:53:00
9:53 PM,64.0,60.1,87,30.07,10.0,Calm,Calm,-,N/A,,Clear,0,2013-07-26 03:53:00
10:53 PM,62.1,59.0,90,30.06,10.0,Calm,Calm,-,N/A,,Clear,0,2013-07-26 04:53:00
11:53 PM,61.0,57.9,90,30.07,10.0,Calm,Calm,-,N/A,,Partly Cloudy,0,2013-07-26 05:53:00